THY123 LTBU-LTFC

Flight info

Callsign THY123
Flight time 0h 50m
Altitude 25000
Route BIG UG80 KONEN UT38 TUMER UN616 CRD UW110 PELIL
Aircraft A320/M-SDE3FGHIRWY/LB1

Departure

Time 2026-04-28 08:52
Airport Tekirdağ Çorlu Airport (LTBU)

Arrival

Time 2026-04-28 09:42
Airport Süleyman Demirel International Airport (LTFC)
Time Latitude Longitude Altitude Speed Heading
2026-04-28 08:32 41.13203 27.90651 547 ft 0 kts 49°
2026-04-28 08:51 41.13268 27.90749 548 ft 52 kts 49°
2026-04-28 08:51 41.13684 27.91383 547 ft 126 kts 48°
2026-04-28 08:52 41.14324 27.92399 828 ft 153 kts 57°
2026-04-28 08:52 41.14849 27.93673 1578 ft 163 kts 81°
2026-04-28 08:52 41.14866 27.95161 2500 ft 161 kts 83°
2026-04-28 08:52 41.15338 27.96491 3128 ft 167 kts 40°
2026-04-28 08:53 41.16427 27.97061 3722 ft 178 kts
2026-04-28 08:53 41.17598 27.96458 4299 ft 192 kts 316°
2026-04-28 08:53 41.18130 27.94781 4870 ft 213 kts 271°
2026-04-28 08:53 41.17600 27.92913 5549 ft 229 kts 228°
2026-04-28 08:54 41.16191 27.91865 6269 ft 243 kts 189°
2026-04-28 08:54 41.14531 27.92173 6921 ft 253 kts 153°
2026-04-28 08:54 41.12884 27.93280 7501 ft 272 kts 160°
2026-04-28 08:54 41.10981 27.93445 8136 ft 284 kts 195°
2026-04-28 08:55 41.09197 27.92274 8225 ft 288 kts 224°
2026-04-28 08:55 41.07812 27.90402 8225 ft 288 kts 228°
2026-04-28 08:55 41.06373 27.88556 8224 ft 289 kts 219°
2026-04-28 08:55 41.04688 27.87090 8390 ft 290 kts 211°
2026-04-28 08:56 41.02888 27.85855 9158 ft 294 kts 207°
2026-04-28 08:56 41.01026 27.84685 10115 ft 298 kts 206°
2026-04-28 08:56 40.99097 27.83485 10692 ft 315 kts 206°
2026-04-28 08:56 40.97064 27.82198 11173 ft 332 kts 207°
2026-04-28 08:57 40.94928 27.80814 11627 ft 349 kts 207°
2026-04-28 08:57 40.92729 27.79358 12264 ft 357 kts 208°
2026-04-28 08:57 40.90495 27.77863 13062 ft 361 kts 208°
2026-04-28 08:57 40.88244 27.76347 13864 ft 365 kts 208°
2026-04-28 08:58 40.85971 27.74813 14555 ft 369 kts 208°
2026-04-28 08:58 40.83677 27.73267 15265 ft 372 kts 208°
2026-04-28 08:58 40.81393 27.71731 15959 ft 375 kts 208°
2026-04-28 08:58 40.79027 27.70146 16663 ft 378 kts 208°
2026-04-28 08:59 40.76673 27.68571 17347 ft 381 kts 208°
2026-04-28 08:59 40.74292 27.66981 18028 ft 385 kts 208°
2026-04-28 08:59 40.71924 27.65403 18668 ft 388 kts 208°
2026-04-28 08:59 40.69504 27.63788 19243 ft 391 kts 208°
2026-04-28 09:00 40.67062 27.62157 19831 ft 395 kts 208°
2026-04-28 09:00 40.64602 27.60515 20433 ft 398 kts 208°
2026-04-28 09:00 40.62120 27.58856 21041 ft 401 kts 208°
2026-04-28 09:00 40.59621 27.57189 21643 ft 404 kts 209°
2026-04-28 09:01 40.57099 27.55508 22223 ft 408 kts 209°
2026-04-28 09:01 40.54558 27.53814 22771 ft 411 kts 209°
2026-04-28 09:01 40.51998 27.52111 23316 ft 413 kts 209°
2026-04-28 09:01 40.50291 27.50978 23685 ft 415 kts 209°
2026-04-28 09:02 40.46824 27.48687 24317 ft 419 kts 209°
2026-04-28 09:02 40.44248 27.46989 24781 ft 420 kts 209°
2026-04-28 09:02 40.41628 27.45259 25075 ft 424 kts 209°
2026-04-28 09:02 40.38987 27.43515 25151 ft 428 kts 209°
2026-04-28 09:03 40.36329 27.41759 25162 ft 428 kts 209°
2026-04-28 09:03 40.33665 27.40004 25160 ft 428 kts 209°
2026-04-28 09:03 40.31005 27.38255 25156 ft 428 kts 208°
2026-04-28 09:03 40.28240 27.36802 25155 ft 430 kts 199°
2026-04-28 09:04 40.25309 27.35952 25154 ft 432 kts 190°
2026-04-28 09:04 40.22328 27.35412 25154 ft 432 kts 190°
2026-04-28 09:04 40.19347 27.34860 25156 ft 432 kts 190°
2026-04-28 09:04 40.16373 27.34300 25153 ft 432 kts 190°
2026-04-28 09:05 40.13400 27.33737 25151 ft 431 kts 190°
2026-04-28 09:05 40.10430 27.33171 25150 ft 432 kts 190°
2026-04-28 09:05 40.07458 27.32606 25146 ft 431 kts 190°
2026-04-28 09:05 40.04483 27.32047 25146 ft 431 kts 190°
2026-04-28 09:06 40.01514 27.31491 25146 ft 431 kts 190°
2026-04-28 09:06 39.98541 27.30933 25150 ft 431 kts 190°
2026-04-28 09:06 39.95576 27.30382 25146 ft 431 kts 190°
2026-04-28 09:06 39.92605 27.29834 25147 ft 431 kts 190°
2026-04-28 09:07 39.89640 27.29293 25142 ft 431 kts 189°
2026-04-28 09:07 39.86678 27.29190 25140 ft 434 kts 176°
2026-04-28 09:07 39.83715 27.29938 25131 ft 436 kts 163°
2026-04-28 09:07 39.80933 27.31532 25123 ft 439 kts 150°
2026-04-28 09:08 39.78485 27.33902 25118 ft 441 kts 137°
2026-04-28 09:08 39.76500 27.36938 25118 ft 441 kts 124°
2026-04-28 09:08 39.74817 27.40276 25120 ft 442 kts 123°
2026-04-28 09:08 39.73127 27.43610 25120 ft 442 kts 124°
2026-04-28 09:09 39.71429 27.46936 25123 ft 442 kts 124°
2026-04-28 09:09 39.69729 27.50258 25123 ft 442 kts 124°
2026-04-28 09:09 39.68027 27.53585 25126 ft 442 kts 124°
2026-04-28 09:09 39.66326 27.56914 25126 ft 442 kts 124°
2026-04-28 09:10 39.64632 27.60238 25126 ft 442 kts 124°
2026-04-28 09:10 39.62935 27.63571 25126 ft 442 kts 124°
2026-04-28 09:10 39.61238 27.66903 25127 ft 442 kts 124°
2026-04-28 09:10 39.59544 27.70228 25130 ft 442 kts 124°
2026-04-28 09:11 39.57846 27.73551 25132 ft 442 kts 124°
2026-04-28 09:11 39.56145 27.76873 25133 ft 442 kts 124°
2026-04-28 09:11 39.54436 27.80204 25144 ft 442 kts 124°
2026-04-28 09:11 39.52755 27.83476 25144 ft 442 kts 124°
2026-04-28 09:12 39.51053 27.86787 25143 ft 441 kts 124°
2026-04-28 09:12 39.49346 27.90098 25145 ft 441 kts 124°
2026-04-28 09:12 39.47637 27.93407 25143 ft 441 kts 124°
2026-04-28 09:12 39.45933 27.96707 25136 ft 441 kts 124°
2026-04-28 09:13 39.44231 28.00007 25135 ft 441 kts 124°
2026-04-28 09:13 39.42523 28.03312 25132 ft 441 kts 124°
2026-04-28 09:13 39.41391 28.05501 25131 ft 441 kts 124°
2026-04-28 09:13 39.39105 28.09912 25129 ft 442 kts 124°
2026-04-28 09:14 39.37974 28.12095 25128 ft 442 kts 124°
2026-04-28 09:14 39.36261 28.15397 25124 ft 442 kts 124°
2026-04-28 09:14 39.34548 28.18693 25120 ft 442 kts 124°
2026-04-28 09:14 39.32837 28.21986 25109 ft 442 kts 124°
2026-04-28 09:15 39.31122 28.25280 25102 ft 442 kts 124°
2026-04-28 09:15 39.29404 28.28570 25102 ft 442 kts 124°
2026-04-28 09:15 39.27684 28.31862 25101 ft 442 kts 124°
2026-04-28 09:15 39.25966 28.35155 25099 ft 443 kts 124°
2026-04-28 09:16 39.24250 28.38451 25098 ft 443 kts 124°
2026-04-28 09:16 39.22533 28.41745 25090 ft 442 kts 124°
2026-04-28 09:16 39.20811 28.45040 25087 ft 442 kts 124°
2026-04-28 09:16 39.19089 28.48327 25082 ft 443 kts 125°
2026-04-28 09:17 39.17364 28.51617 25080 ft 443 kts 125°
2026-04-28 09:17 39.15638 28.54905 25075 ft 443 kts 125°
2026-04-28 09:17 39.13910 28.58194 25068 ft 443 kts 125°
2026-04-28 09:17 39.12207 28.61432 25065 ft 443 kts 125°
2026-04-28 09:18 39.10477 28.64713 25059 ft 443 kts 125°
2026-04-28 09:18 39.08744 28.67993 25054 ft 443 kts 125°
2026-04-28 09:18 39.07007 28.71279 25047 ft 443 kts 125°
2026-04-28 09:18 39.05272 28.74561 25048 ft 443 kts 125°
2026-04-28 09:19 39.03542 28.77838 25045 ft 443 kts 125°
2026-04-28 09:19 39.01811 28.81121 25043 ft 443 kts 125°
2026-04-28 09:19 39.00077 28.84402 25040 ft 443 kts 125°
2026-04-28 09:19 38.98344 28.87673 25038 ft 443 kts 125°
2026-04-28 09:20 38.96605 28.90948 25034 ft 443 kts 125°
2026-04-28 09:20 38.94866 28.94219 25037 ft 443 kts 125°
2026-04-28 09:20 38.93127 28.97486 25033 ft 443 kts 125°
2026-04-28 09:20 38.91384 29.00757 25030 ft 443 kts 125°
2026-04-28 09:21 38.89639 29.04023 25030 ft 443 kts 125°
2026-04-28 09:21 38.87892 29.07291 25026 ft 443 kts 125°
2026-04-28 09:21 38.86146 29.10558 25030 ft 443 kts 125°
2026-04-28 09:21 38.84387 29.13846 25037 ft 451 kts 125°
2026-04-28 09:22 38.82632 29.17133 25049 ft 444 kts 125°
2026-04-28 09:22 38.80890 29.20395 25059 ft 443 kts 125°
2026-04-28 09:22 38.79144 29.23658 25063 ft 443 kts 125°
2026-04-28 09:22 38.77392 29.26923 25070 ft 444 kts 126°
2026-04-28 09:23 38.75642 29.30179 25072 ft 443 kts 126°
2026-04-28 09:23 38.73911 29.33388 25076 ft 443 kts 126°
2026-04-28 09:23 38.72157 29.36639 25083 ft 444 kts 126°
2026-04-28 09:23 38.70403 29.39884 25083 ft 444 kts 127°
2026-04-28 09:24 38.68415 29.42890 25082 ft 442 kts 137°
2026-04-28 09:24 38.66055 29.45397 25080 ft 440 kts 148°
2026-04-28 09:24 38.63410 29.47316 25078 ft 437 kts 158°
2026-04-28 09:24 38.60550 29.48620 25076 ft 434 kts 168°
2026-04-28 09:25 38.57604 29.49437 25071 ft 433 kts 171°
2026-04-28 09:25 38.54655 29.50223 25069 ft 433 kts 171°
2026-04-28 09:25 38.51707 29.51015 25064 ft 433 kts 170°
2026-04-28 09:25 38.48762 29.51810 25059 ft 433 kts 170°
2026-04-28 09:26 38.45816 29.52606 25053 ft 433 kts 170°
2026-04-28 09:26 38.42859 29.53404 25052 ft 433 kts 170°
2026-04-28 09:26 38.39915 29.54198 25045 ft 433 kts 170°
2026-04-28 09:26 38.37001 29.54982 25005 ft 432 kts 170°
2026-04-28 09:27 38.31152 29.56546 24525 ft 428 kts 170°
2026-04-28 09:27 38.28243 29.57324 24284 ft 427 kts 170°
2026-04-28 09:27 38.25343 29.58101 24050 ft 425 kts 170°
2026-04-28 09:28 38.22452 29.58874 23818 ft 424 kts 170°
2026-04-28 09:28 38.19567 29.59643 23592 ft 422 kts 170°
2026-04-28 09:28 38.16695 29.60407 23309 ft 421 kts 170°
2026-04-28 09:28 38.13830 29.61168 23030 ft 419 kts 170°
2026-04-28 09:29 38.10982 29.61925 22760 ft 417 kts 170°
2026-04-28 09:29 38.08147 29.62676 22493 ft 415 kts 170°
2026-04-28 09:29 38.05327 29.63423 22220 ft 414 kts 170°
2026-04-28 09:29 38.02515 29.64168 21963 ft 411 kts 170°
2026-04-28 09:30 37.99735 29.64906 21487 ft 406 kts 170°
2026-04-28 09:30 37.97021 29.65628 20963 ft 402 kts 170°
2026-04-28 09:30 37.94292 29.66422 20485 ft 402 kts 164°
2026-04-28 09:30 37.91799 29.68000 19951 ft 402 kts 144°
2026-04-28 09:31 37.89793 29.70423 19296 ft 394 kts 134°
2026-04-28 09:31 37.87913 29.72921 18314 ft 390 kts 135°
2026-04-28 09:31 37.86035 29.75376 17271 ft 386 kts 135°
2026-04-28 09:31 37.84180 29.77786 16322 ft 379 kts 135°
2026-04-28 09:32 37.82394 29.80182 15415 ft 369 kts 134°
2026-04-28 09:32 37.80610 29.82482 14467 ft 365 kts 135°
2026-04-28 09:32 37.78833 29.84748 13511 ft 360 kts 135°
2026-04-28 09:32 37.77075 29.86985 12570 ft 355 kts 135°
2026-04-28 09:33 37.75374 29.89155 12099 ft 338 kts 135°
2026-04-28 09:33 37.73788 29.91187 11934 ft 313 kts 135°
2026-04-28 09:33 37.72292 29.93106 11488 ft 302 kts 135°
2026-04-28 09:33 37.70831 29.94985 10872 ft 298 kts 135°
2026-04-28 09:34 37.69389 29.96846 10231 ft 295 kts 135°
2026-04-28 09:34 37.67964 29.98694 9582 ft 291 kts 135°
2026-04-28 09:34 37.66666 30.00631 8892 ft 289 kts 121°
2026-04-28 09:34 37.65904 30.02910 8237 ft 286 kts 102°
2026-04-28 09:35 37.65776 30.05372 7831 ft 274 kts 83°
2026-04-28 09:35 37.66217 30.07607 7638 ft 255 kts 66°
2026-04-28 09:35 37.67090 30.09506 7238 ft 250 kts 50°
2026-04-28 09:35 37.68198 30.11135 7112 ft 239 kts 48°
2026-04-28 09:36 37.69249 30.12684 6985 ft 225 kts 49°
2026-04-28 09:36 37.70234 30.14136 6788 ft 214 kts 48°
2026-04-28 09:36 37.71190 30.15544 6545 ft 204 kts 48°
2026-04-28 09:36 37.72073 30.16844 6440 ft 184 kts 49°
2026-04-28 09:37 37.72851 30.17991 6389 ft 160 kts 48°
2026-04-28 09:37 37.73554 30.19027 6423 ft 154 kts 47°
2026-04-28 09:37 37.74274 30.20030 6315 ft 157 kts 43°
2026-04-28 09:37 37.74836 30.21216 5915 ft 155 kts 54°
2026-04-28 09:38 37.75434 30.22329 5675 ft 154 kts 53°
2026-04-28 09:38 37.76076 30.23383 5577 ft 151 kts 37°
2026-04-28 09:38 37.76934 30.24152 5382 ft 151 kts 43°
2026-04-28 09:38 37.77625 30.25120 5194 ft 150 kts 46°
2026-04-28 09:39 37.78321 30.26098 4981 ft 150 kts 47°
2026-04-28 09:39 37.79010 30.27093 4746 ft 150 kts 48°
2026-04-28 09:39 37.79691 30.28090 4513 ft 149 kts 48°
2026-04-28 09:39 37.80364 30.29080 4279 ft 148 kts 48°
2026-04-28 09:40 37.81037 30.30073 4025 ft 147 kts 47°
2026-04-28 09:40 37.81704 30.31058 3819 ft 147 kts 47°
2026-04-28 09:40 37.82376 30.32032 3596 ft 147 kts 49°
2026-04-28 09:40 37.83029 30.33025 3420 ft 147 kts 50°
2026-04-28 09:41 37.83685 30.34009 3232 ft 146 kts 49°
2026-04-28 09:41 37.84358 30.34980 2998 ft 147 kts 51°
2026-04-28 09:41 37.85040 30.36004 2845 ft 157 kts 50°
2026-04-28 09:41 37.85629 30.36879 2839 ft 93 kts 46°
2026-04-28 09:42 37.85929 30.37319 2839 ft 55 kts 51°
2026-04-28 09:42 37.86160 30.37665 2842 ft 49 kts 52°
2026-04-28 09:42 37.86372 30.37969 2841 ft 32 kts 50°
2026-04-28 09:42 37.86475 30.38082 2841 ft 11 kts 20°
2026-04-28 09:43 37.86533 30.38121 2842 ft 8 kts 52°
2026-04-28 09:43 37.86495 30.38152 2841 ft 11 kts 211°
2026-04-28 09:43 37.86439 30.38071 2841 ft 19 kts 226°
2026-04-28 09:43 37.86333 30.37927 2841 ft 24 kts 226°
2026-04-28 09:44 37.86216 30.37750 2842 ft 32 kts 230°
2026-04-28 09:44 37.86044 30.37505 2842 ft 39 kts 226°
2026-04-28 09:44 37.85877 30.37240 2839 ft 38 kts 229°
2026-04-28 09:44 37.85725 30.37017 2838 ft 22 kts 229°
2026-04-28 09:45 37.85681 30.36951 2838 ft 6 kts 230°
2026-04-28 09:45 37.85661 30.36918 2839 ft 4 kts 240°
2026-04-28 09:45 37.85673 30.36867 2839 ft 9 kts 314°
2026-04-28 09:45 37.85720 30.36815 2840 ft 10 kts 319°
2026-04-28 09:46 37.85776 30.36756 2840 ft 9 kts 320°
2026-04-28 09:46 37.85797 30.36711 2838 ft 1 kts 294°
2026-04-28 09:46 37.85831 30.36689 2840 ft 9 kts 336°
2026-04-28 09:46 37.85861 30.36661 2840 ft 0 kts 316°